Weather History for Crestview, FL

Change the Weather History Date:

Saturday, February 11, 2012

  Actual Average Record
Temperature  
Mean Temperature 42 °F -  
Max Temperature 52 °F - - ()
Min Temperature 31 °F - - ()
Degree Days  
Heating Degree Days 23    
Moisture  
Dew Point 29 °F    
Average Humidity 60    
Maximum Humidity 90    
Minimum Humidity 25    
Precipitation  
Precipitation 0.00 in - - ()
Sea Level Pressure  
Sea Level Pressure 30.17 in    
Wind  
Wind Speed 12 mph (NW)    
Max Wind Speed 24 mph    
Max Gust Speed 32 mph    
Visibility 10 miles    
Events      
T = Trace of Precipitation, MM = Missing Value Source: NWS Daily Summary

Daily Weather History Graph

Daily Weather History Graph

Search for Another Location

Airport:

Trip Planner

Search our weather history database for the weather conditions in past years. The results will help you decide how hot, cold, wet, or windy it might be!

Date:

Astronomy

Feb. 11, 2012 Rise Set
Actual Time 6:30 AM CST 5:30 PM CST
Civil Twilight 6:05 AM CST 5:55 PM CST
Nautical Twilight 5:37 AM CST 6:23 PM CST
Astronomical Twilight 5:09 AM CST 6:51 PM CST
Moon 9:52 PM CST (2/11) 8:35 AM CST (2/11)
Length of Visible Light 11h 49m
Length of Day
10h 59m
Waning Gibbous, 82% of the Moon is Illuminated
Feb 11
Waning Gibbous
Feb 14
Last Quarter
Feb 21
New
Feb 29
First Quarter
Mar 8
Full

Hourly Weather History & Observations

Time (CST) Temp. Windchill Dew Point Humidity Pressure Visibility Wind Dir Wind Speed Gust Speed Precip Events Conditions
12:19 AM 50.0 °F - 44.6 °F 82% 30.01 in 10.0 mi NW 3.5 mph - N/A   Overcast
12:55 AM 47.8 °F - 44.8 °F 89% 30.00 in 10.0 mi NW 4.6 mph - N/A   Mostly Cloudy
1:21 AM 48.2 °F - 44.6 °F 87% 30.05 in 10.0 mi WNW 6.9 mph - N/A   Mostly Cloudy
1:55 AM 48.4 °F - 45.7 °F 90% 30.04 in 10.0 mi NW 9.2 mph - N/A   Overcast
2:55 AM 47.3 °F - 44.2 °F 89% 30.04 in 10.0 mi NW 11.5 mph - N/A   Clear
3:55 AM 46.0 °F 41.0 °F 39.9 °F 79% 30.06 in 10.0 mi WNW 10.4 mph - N/A   Clear
4:55 AM 44.1 °F 38.6 °F 37.8 °F 78% 30.09 in 10.0 mi NW 10.4 mph - N/A   Clear
5:55 AM 44.6 °F 36.9 °F 38.3 °F 79% 30.11 in 10.0 mi NW 18.4 mph - N/A   Overcast
6:29 AM 44.6 °F 38.8 °F 37.4 °F 76% 30.12 in 10.0 mi NW 11.5 mph 18.4 mph N/A   Scattered Clouds
6:52 AM 44.6 °F 37.2 °F 37.4 °F 76% 30.13 in 10.0 mi NW 17.3 mph 21.9 mph N/A   Mostly Cloudy
6:54 AM 44.6 °F 38.1 °F 37.4 °F 76% 30.12 in 10.0 mi NW 13.8 mph 21.9 mph N/A   Mostly Cloudy
6:55 AM 44.1 °F 36.8 °F 37.6 °F 78% 30.12 in 10.0 mi NW 16.1 mph 21.9 mph N/A   Mostly Cloudy
6:57 AM 44.6 °F 39.7 °F 37.4 °F 76% 30.12 in 10.0 mi NNW 9.2 mph 21.9 mph N/A   Mostly Cloudy
7:00 AM 44.6 °F 38.8 °F 37.4 °F 76% 30.13 in 10.0 mi NW 11.5 mph 21.9 mph N/A   Scattered Clouds
7:55 AM 45.3 °F 38.4 °F 36.5 °F 71% 30.15 in 10.0 mi NW 16.1 mph 23.0 mph N/A   Scattered Clouds
8:02 AM 46.4 °F 41.1 °F 37.4 °F 71% 30.15 in 10.0 mi NNW 11.5 mph - N/A   Mostly Cloudy
8:55 AM 46.0 °F 38.5 °F 34.7 °F 65% 30.16 in 10.0 mi NNW 19.6 mph 24.2 mph N/A   Overcast
9:55 AM 47.8 °F - 34.3 °F 60% 30.18 in 10.0 mi NNW 16.1 mph 24.2 mph N/A   Mostly Cloudy
10:07 AM 48.2 °F - 33.8 °F 58% 30.18 in 10.0 mi NW 17.3 mph 25.3 mph N/A   Overcast
10:16 AM 48.2 °F - 33.8 °F 58% 30.19 in 10.0 mi NNW 17.3 mph - N/A   Overcast
10:23 AM 48.2 °F - 33.8 °F 58% 30.18 in 10.0 mi NW 19.6 mph 24.2 mph N/A   Overcast
10:26 AM 48.2 °F - 33.8 °F 58% 30.18 in 10.0 mi NW 16.1 mph 24.2 mph N/A   Mostly Cloudy
10:30 AM 48.2 °F - 33.8 °F 58% 30.18 in 10.0 mi NW 19.6 mph - N/A   Mostly Cloudy
10:55 AM 50.9 °F - 32.7 °F 50% 30.18 in 10.0 mi NW 19.6 mph 25.3 mph N/A   Scattered Clouds
11:55 AM 51.4 °F - 30.7 °F 45% 30.17 in 10.0 mi NW 21.9 mph 28.8 mph N/A   Partly Cloudy
12:55 PM 51.6 °F - 24.4 °F 35% 30.15 in 10.0 mi North 20.7 mph 31.1 mph N/A   Clear
1:55 PM 52.2 °F - 18.9 °F 27% 30.16 in 10.0 mi NNW 24.2 mph 32.2 mph N/A   Clear
2:55 PM 51.6 °F - 18.5 °F 27% 30.17 in 10.0 mi NW 21.9 mph 27.6 mph N/A   Clear
3:55 PM 48.7 °F - 14.2 °F 25% 30.19 in 10.0 mi NW 24.2 mph 28.8 mph N/A   Clear
4:55 PM 45.9 °F 38.5 °F 14.0 °F 28% 30.22 in 10.0 mi NNW 18.4 mph 28.8 mph N/A   Clear
5:55 PM 42.6 °F 35.2 °F 16.7 °F 35% 30.25 in 10.0 mi NNW 15.0 mph 24.2 mph N/A   Clear
6:55 PM 40.5 °F 32.8 °F 16.5 °F 38% 30.30 in 10.0 mi NNW 13.8 mph 20.7 mph N/A   Clear
7:55 PM 38.3 °F 29.3 °F 13.1 °F 36% 30.32 in 10.0 mi NNW 16.1 mph 25.3 mph N/A   Clear
8:55 PM 36.3 °F 26.1 °F 11.3 °F 36% 30.36 in 10.0 mi North 18.4 mph 25.3 mph N/A   Clear
9:55 PM 34.7 °F 25.1 °F 9.7 °F 35% 30.39 in 10.0 mi NNW 15.0 mph 25.3 mph N/A   Clear
10:55 PM 32.5 °F 24.2 °F 11.5 °F 42% 30.41 in 10.0 mi NNW 10.4 mph - N/A   Clear
11:55 PM 31.5 °F 22.3 °F 11.7 °F 44% 30.41 in 10.0 mi North 11.5 mph - N/A   Clear